Home   Weather   Rostock   Past weeks

Flag for Germany Past Weather in Rostock, Mecklenburg-Western Pomerania, Germany — Yesterday and Last 2 Weeks

Now
64 °F

Partly sunny.


Feels Like: 64 °F
Forecast: 57 / 67 °F
Wind: 9 mph from West

Location: Laage

Current Time: Jul 28, 2017 at 6:59:05 pm

Latest Report: Jul 28, 2017 at 5:20 pm


Visibility: N/A

Pressure: 29.83 "Hg

Humidity: 73%

Dew Point: 55 °F

Location of RostockLocation

Past Weather in Rostock — Graph

°F

Rostock Temperature Yesterday

Maximum temperature yesterday: 72 °F (at 5:45 pm)
Minimum temperature yesterday: 55 °F (at 4:20 am)
Average temperature yesterday: 64 °F

High & Low Weather Summary for the Past Weeks

 TemperatureHumidityPressure
High77 °F (Jul 19, 4:20 pm)100% (Jul 15, 11:20 pm)30.21 "Hg (Jul 15, 11:20 pm)
Low48 °F (Jul 14, 5:20 am)40% (Jul 14, 2:20 pm)29.59 "Hg (Jul 26, 3:20 am)
Average62 °F82%29.90 "Hg
* Reported Jul 13 5:20 pm — Jul 28 5:20 pm, Rostock. Weather by CustomWeather, © 2017

Note: Actual official high and low records may vary slightly from our data, if they occured in-between our weather recording intervals... More about our weather records

Advertising

Rostock Weather History for the Previous 24 Hours

Scroll right to see more
 ConditionsComfort  
Time TempWeatherWind HumidityBarometerVisibility
5:20 pm
Fri, Jul 28
64 °FPartly sunny.9 mph73%29.83 "HgN/A
4:20 pm63 °FScattered showers. Partly sunny.16 mph73%29.80 "HgN/A
3:20 pm66 °FScattered showers. Broken clouds.12 mph68%29.77 "HgN/A
2:27 pm72 °FScattered showers. Scattered clouds.10 mph53%29.77 "HgN/A
1:20 pm68 °FBroken clouds.12 mph56%29.77 "HgN/A
12:20 pm68 °FScattered clouds.10 mph60%29.77 "HgN/A
11:20 am66 °FPassing clouds.13 mph64%29.77 "HgN/A
10:20 am64 °FScattered clouds.8 mph78%29.77 "HgN/A
9:52 am63 °FPassing clouds.5 mph83%29.77 "HgN/A
9:20 am61 °FPassing clouds.5 mph88%29.74 "HgN/A
9:00 am59 °FScattered showers. Partly sunny.2 mph94%29.74 "HgN/A
8:20 am59 °FSprinkles. Broken clouds.5 mph94%29.74 "HgN/A
7:20 am57 °FScattered showers. Partly sunny.3 mph94%29.71 "HgN/A
6:44 am57 °FSprinkles. Partly sunny.8 mph88%29.74 "HgN/A
6:20 am57 °FScattered showers. Fog.10 mph88%29.71 "HgN/A
5:20 am57 °FFog.2 mph94%29.71 "HgN/A
4:20 am57 °FFog.2 mph100%29.71 "HgN/A
3:20 am57 °FFog.3 mph94%29.71 "HgN/A
2:20 am57 °FPassing clouds.2 mph94%29.71 "HgN/A
1:20 am57 °FPassing clouds.3 mph94%29.71 "HgN/A
12:20 am59 °FPassing clouds.1 mph94%29.71 "HgN/A
11:20 pm
Thu, Jul 27
59 °FPassing clouds.1 mph94%29.71 "HgN/A
10:20 pm61 °FPassing clouds.1 mph88%29.71 "HgN/A
9:20 pm63 °FPartly cloudy.1 mph83%29.68 "HgN/A
8:20 pm64 °FPartly sunny.5 mph78%29.68 "HgN/A
7:20 pm66 °FPartly sunny.9 mph68%29.68 "HgN/A
6:20 pm70 °FSprinkles. Partly sunny.5 mph73%29.65 "HgN/A
Weather by CustomWeather, © 2017

See weather overviewHow to use our weather pages